Weather observations for the past three days for
Greenwood, Greenwood County Airport
Imperial (Metric)
Date Time (edt) Wind (mph) Vis. (mi.) Weather Sky Cond. Temperature (ºF) Relative Humidity Wind Chill (°F) Heat Index (°F) Pressure Precipitation (in)
Air Dwpt 6 hour altimeter (in) sea level (mb) 1 hr 3 hr 6 hr
Max. Min.
24 11:56 Vrbl 7 10.00 A Few Clouds FEW020 84.9 75 72% 93 30.23 1023.0
24 10:56 SW 8 10.00 Fair CLR 80.1 73 79% 84 30.23 1023.0
24 09:56 S 7 10.00 Partly Cloudy SCT010 78.1 73 85% 81 30.22 1022.7
24 08:56 SW 8 10.00 A Few Clouds FEW005 75 72 90% 74 30.22 1022.5
24 07:56 S 6 10.00 Fair CLR 72 71.1 72 71.1 97% 30.21 1022.3
24 06:56 SW 5 10.00 Fair CLR 71.1 71.1 100% 30.2 1021.9
24 05:56 W 5 10.00 Fair CLR 71.1 70 96% 30.19 1021.5
24 04:56 S 5 10.00 Fair CLR 71.1 71.1 100% 30.19 1021.3
24 03:56 SW 3 10.00 Partly Cloudy SCT110 71.1 71.1 100% 30.18 1021.3
24 02:56 Calm 10.00 Fair CLR 71.1 70 96% 30.17 1020.7
24 01:56 S 7 10.00 Fair CLR 71.1 70 80.1 71.1 96% 30.17 1020.7 0.57
24 00:56 S 7 10.00 Fair CLR 72 72 100% 30.19 1021.6
23 23:56 SE 3 5.00 Thunderstorm Rain Fog/Mist BKN110 72 72 100% 30.18 1021.2 0.46
23 22:56 SW 17 G 25 2.00 Thunderstorm Heavy Rain Fog/Mist BKN012 BKN025 BKN100 75 73 94% 73 30.2 1021.8 0.11 0.11
23 21:56 Calm 10.00 Fair CLR 77 73.9 90% 78 30.16 1020.3
23 20:56 Calm 10.00 Fair CLR 78.1 73.9 87% 81 30.13 1019.6
23 19:56 NW 3 10.00 Fair CLR 80.1 73.9 91 80.1 82% 85 30.13 1019.4
23 18:56 SW 5 10.00 A Few Clouds FEW047 81 73 77% 86 30.11 1018.8
23 17:56 SW 10 10.00 Fair CLR 81 72 74% 85 30.1 1018.4
23 16:56 SW 10 10.00 A Few Clouds FEW085 FEW110 86 73 65% 93 30.08 1017.7
23 15:56 SW 13 10.00 A Few Clouds FEW040 FEW050 90 73 58% 98 30.09 1017.9
23 14:56 SW 7 10.00 Partly Cloudy FEW042 SCT050 88 71.1 57% 94 30.09 1018.1
23 13:56 SW 10 10.00 Mostly Cloudy SCT039 BKN049 87.1 71.1 89.1 73.9 59% 93 30.12 1019.2
23 12:56 W 8 10.00 Mostly Cloudy SCT036 BKN048 BKN055 84.9 72 65% 91 30.14 1019.8
23 11:56 S 12 10.00 Partly Cloudy SCT033 87.1 73 63% 95 30.14 1019.8
23 10:56 SW 7 10.00 Fair CLR 84 72 67% 90 30.13 1019.4
23 09:56 SW 6 10.00 Fair CLR 82 73 74% 87 30.13 1019.4
23 08:56 S 8 10.00 Fair CLR 78.1 73.9 87% 81 30.13 1019.5
23 07:56 S 5 9.00 Fair CLR 73.9 73 75 71.1 97% 30.12 1019.2
23 06:56 S 3 7.00 Mostly Cloudy FEW029 SCT034 BKN046 72 72 100% 30.12 1019.0
23 05:56 Calm 10.00 Mostly Cloudy BKN037 72 71.1 97% 30.11 1018.7
23 04:56 Calm 10.00 A Few Clouds FEW038 FEW050 72 71.1 97% 30.09 1018.2
23 03:56 Calm 10.00 Fair CLR 73 71.1 94% 30.07 1017.6
23 02:56 Calm 10.00 Fair CLR 73.9 71.1 91% 30.07 1017.5
23 01:56 Calm 10.00 Fair CLR 73 71.1 82.9 73 94% 30.08 1017.8
23 00:56 Calm 10.00 Fair CLR 75 72 90% 74 30.09 1018.0
22 23:56 S 5 10.00 Fair CLR 73.9 72 94% 30.08 1017.9
22 22:56 S 3 10.00 Fair CLR 75.9 71.1 85% 76 30.08 1018.0
22 21:56 S 6 10.00 Fair CLR 75.9 71.1 85% 76 30.07 1017.5
22 20:56 S 5 10.00 Fair CLR 77 70 79% 79 30.05 1016.7
22 19:56 SW 6 10.00 Fair CLR 82.9 69.1 87.1 82.9 63% 87 30.03 1016.2
22 18:56 SW 12 10.00 Fair CLR 84.9 70 61% 89 30.02 1015.7
22 17:56 SW 10 10.00 A Few Clouds FEW037 86 70 59% 91 30.01 1015.6
22 16:56 SW 8 10.00 Fair CLR 86 70 59% 91 30.02 1015.8
22 15:56 SW 9 10.00 Partly Cloudy FEW031 FEW043 SCT055 86 71.1 61% 92 30.04 1016.5
22 14:56 SW 8 10.00 Partly Cloudy SCT029 84.9 72 65% 91 30.06 1017.2
22 13:56 S 9 10.00 Fair CLR 84.9 72 84.9 71.1 65% 91 30.08 1017.9
22 12:56 SW 9 10.00 Fair CLR 82.9 72 70% 88 30.09 1018.4
22 11:56 SW 8 10.00 Fair CLR 79 72 79% 82 30.1 998.1
22 10:56 S 3 10.00 Partly Cloudy SCT010 77 73 88% 78 30.1 998.2
22 09:56 S 5 10.00 Partly Cloudy SCT008 75.9 73 91% 76 30.09 1018.3
22 08:56 S 5 10.00 Fair CLR 73.9 73 97% 30.08 1018.1
22 07:56 S 5 7.00 Mostly Cloudy BKN002 71.1 71.1 72 70 100% 30.08 1017.9
22 06:56 Calm 6.00 Fog/Mist CLR 70 70 100% 30.07 1017.6
22 05:56 S 3 7.00 A Few Clouds FEW002 70 70 100% 30.07 1017.4
22 04:56 Calm 0.75 Fog/Mist VV002 70 70 100% 30.05 1016.9
22 03:56 Calm 0.75 Fog/Mist SCT002 BKN013 BKN023 70 70 100% 30.04 1016.6
22 02:56 Calm 9.00 Mostly Cloudy SCT016 SCT095 BKN120 71.1 71.1 100% 30.05 1017.0
22 01:56 Calm 1.25 Heavy Rain Fog/Mist SCT023 BKN032 OVC060 71.1 71.1 73 71.1 100% 30.07 1017.7 0.22 0.27
22 00:56 Calm 10.00 Mostly Cloudy FEW026 BKN038 71.1 71.1 100% 30.1 998.1
21 23:56 Calm 10.00 Light Rain FEW023 BKN110 71.1 70 96% 30.11 1018.9 0.03
21 22:56 Vrbl 3 5.00 Light Rain Fog/Mist FEW035 FEW075 BKN120 72 71.1 97% 30.11 1019.0 0.02 0.02
21 21:56 SE 6 10.00 Fair CLR 72 71.1 97% 30.09 1018.2
21 20:56 W 3 10.00 Fair CLR 72 72 100% 30.06 1017.2
21 19:56 SW 5 10.00 Mostly Cloudy FEW080 SCT095 BKN110 73 72 86 73 96% 30.04 1016.7 0.04 0.05
21 18:56 W 10 7.00 Light Rain FEW110 77 72 85% 78 30.04 997.2 0.01
21 17:56 S 6 10.00 Fair CLR 82.9 73 72% 89 30.03 1016.0
21 16:56 SW 5 10.00 Fair CLR 84 72 67% 90 30.04 1016.5
21 15:56 Vrbl 5 10.00 Partly Cloudy SCT036 84.9 72 65% 91 30.05 1016.9
21 14:56 Vrbl 6 10.00 Mostly Cloudy BKN031 82.9 71.1 67% 88 30.06 1017.2
21 13:56 Vrbl 5 10.00 Partly Cloudy SCT024 82.9 72 82.9 72 70% 88 30.09 1018.1
21 12:56 SW 6 10.00 Overcast OVC027 79 72 79% 82 30.12 998.6
Date Time (edt) Wind (mph) Vis. (mi.) Weather Sky Cond. Air Dwpt Max. Min. Relative Humidity Wind Chill (°F) Heat Index (°F) altimeter (in) sea level (mb) 1 hr 3 hr 6 hr
6 hour
Temperature (ºF) Pressure Precipitation (in)